CZ-4B DEB, 40533

Orbit data source: Space-Track

CZ-4B DEB, 40533 is space debris in LEO originally from a launch on Fri, 25 Oct 2013 UTC launched from the Jiuquan Satellite Launch Center, China (JSC). Debris objects in space refer to the collection of defunct objects orbiting the Earth. Examples of debris include non-operational satellites, rocket bodies, and fragments generated from explosions, collisions, or faulty payload assembly.

Loading next visibility...
Identifier
40533, 2013-057F
Orbit
LEO
Last TLE update
12 hours ago
Origin
Manufacturer
SAST
Mission
Spacecraft
Bus & Motor
Unknown
Mass
Unknown
Launch date (UTC)
2013-10-25 (12 years ago)
Launch vehicle
Unknown
Launch site
Jiuquan Satellite Launch Center, China (JSC)
Object type
Payload
Rocket body
Debris
Shape & HBR
Unknown
Radar Cross Section
Small (<0.1 m²)

Expand to show TLE details & history

TLE from 12 hours ago
0 CZ-4B DEB
1 40533U 13057F   25132.76645019  .00004709  00000-0  81829-3 0  9993
2 40533  74.9178 159.7669 0170505  56.4256 305.3061 14.59223982534951
Epoch: 2025-05-12T18:23Z
Definitive object data (Epoch: 2025-05-12T18:23:41.296Z)
Latitude
0.00002°
Longitude
13.07001°
Altitude
630.04 km
Speed
7.58 km/s
True Right ascension
10h 39m 04s
True Declination
0° 00' 00"
Sunlit
Object was in daylight at TLE epoch
Visualization TLE readout
Latitude
-2.99797°
Longitude
-167.05272°
Altitude
771.302 km
Speed
7.43 km/s
Apparent Right ascension
00h 25m 15s
Apparent Declination
-23° 46' 26"
Sunlit
Object is in daylight
Visualization observer readout
Local Sidereal Time
15:08:41
Azimuth
77.299° E
Elevation
-52.142°
Doppler factor
1
Orbital elements
Apogee altitude
813.774 km
Perigee altitude
572.634 km
Semi-major axis
7,071.341 km
Eccentricity
0.0170505
Inclination
74.9178°
RAAN
159.7669°
Arg. of periapsis
56.4256°
True anomaly
303.69195°
Mean anomaly
305.3061°
Eccentric anomaly
304.501°
Mean motion
3.64998 °/min
BSTAR
0.00081829
Orbital period
98.63 mins
Loading maneuver chart data...
Loading SW <> Apogee altitude chart data...
Loading historical data...
Loading historical data...
Loading historical data...
Loading historical data...
Loading historical data...
Loading historical data...
Loading historical data...
Other satellites on launch #57 in the year 2013 (2013-10-25 UTC)

CZ-4B DEB Visibility forecast

Observer location: undefined°, undefined°

Span
Click to sort rows by Start time (UTC) header in descending order
Start Az.
Max El. time (UTC)
Max El. Az.
Max El.
End time (UTC)
End Az.
9 mins2025-05-13 13:02:02.554Z346.562° N2025-05-13 13:06:02.554Z29.701° NE42.77°2025-05-13 13:11:02.554Z156.587° SSE
4 mins2025-05-14 01:48:02.554Z126.558° SE2025-05-14 01:50:02.554Z93.392° ESE16.035°2025-05-14 01:52:02.554Z62.156° ENE
5 mins2025-05-14 03:28:02.554Z246.342° WSW2025-05-14 03:30:02.554Z298.091° NW29.133°2025-05-14 03:33:02.554Z354.876° N
|